Weather History for Port Fourchon Terminal, LA

Change the Weather History Date:

Saturday, February 8, 2014

  Actual Average Record
Temperature  
Mean Temperature 54 °F -  
Max Temperature 60 °F - - ()
Min Temperature 48 °F - - ()
Degree Days  
Heating Degree Days 11    
Growing Degree Days 4 (Base 50)    
Moisture  
Dew Point 50 °F    
Average Humidity 86    
Maximum Humidity 100    
Minimum Humidity 72    
Precipitation  
Precipitation 0.00 in - - ()
Sea Level Pressure  
Sea Level Pressure 30.19 in    
Wind  
Wind Speed 9 mph (ENE)    
Max Wind Speed 14 mph    
Max Gust Speed 21 mph    
Visibility 8 miles    
Events      
T = Trace of Precipitation, MM = Missing Value Source: NWS Daily Summary

Daily Weather History Graph

Daily Weather History Graph

Search for Another Location

Airport:

Trip Planner

Search our weather history database for the weather conditions in past years. The results will help you decide how hot, cold, wet, or windy it might be!

Date:

Astronomy

Feb. 08, 2014 Rise Set
Actual Time 6:45 AM CST 5:45 PM CST
Civil Twilight 6:20 AM CST 6:09 PM CST
Nautical Twilight 5:52 AM CST 6:37 PM CST
Astronomical Twilight 5:24 AM CST 7:05 PM CST
Moon 12:46 PM CST (2/8) 1:51 AM CST (2/8)
Length of Visible Light 11h 49m
Length of Day
11h 00m
Waxing Gibbous, 69% of the Moon is Illuminated
Feb 8
Waxing Gibbous
Feb 14
Full
Feb 22
Last Quarter
Mar 1
New
Mar 8
First Quarter

Hourly Weather History & Observations

Time (CST) Temp. Dew Point Humidity Pressure Visibility Wind Dir Wind Speed Gust Speed Precip Events Conditions
12:15 AM 50.0 °F 44.6 °F 82% 30.19 in 9.0 mi NNE 9.2 mph - N/A   Overcast
12:35 AM 48.2 °F 44.6 °F 87% 30.20 in 8.0 mi NNE 8.1 mph - N/A   Overcast
12:55 AM 48.2 °F 44.6 °F 87% 30.19 in 8.0 mi NE 9.2 mph - N/A   Overcast
1:15 AM 48.2 °F 44.6 °F 87% 30.22 in 8.0 mi NNE 8.1 mph - N/A   Overcast
1:35 AM 48.2 °F 44.6 °F 87% 30.23 in 7.0 mi NNE 9.2 mph - N/A   Overcast
1:55 AM 48.2 °F 44.6 °F 87% 30.21 in 4.0 mi NE 9.2 mph - N/A   Mostly Cloudy
2:15 AM 48.2 °F 44.6 °F 87% 30.18 in 7.0 mi ENE 11.5 mph - N/A   Mostly Cloudy
2:35 AM 48.2 °F 44.6 °F 87% 30.18 in 7.0 mi NE 13.8 mph - N/A   Mostly Cloudy
2:55 AM 48.2 °F 44.6 °F 87% 30.19 in 6.0 mi NNE 10.4 mph - N/A   Mostly Cloudy
3:15 AM 48.2 °F 44.6 °F 87% 30.19 in 7.0 mi NE 11.5 mph - N/A   Overcast
3:35 AM 48.2 °F 44.6 °F 87% 30.18 in 7.0 mi NE 11.5 mph - N/A   Overcast
3:55 AM 48.2 °F 44.6 °F 87% 30.18 in 8.0 mi NE 12.7 mph - N/A   Overcast
4:15 AM 48.2 °F 44.6 °F 87% 30.18 in 9.0 mi NE 11.5 mph 18.4 mph N/A   Overcast
4:35 AM 48.2 °F 44.6 °F 87% 30.19 in 10.0 mi NNE 10.4 mph - N/A   Overcast
4:55 AM 48.2 °F 44.6 °F 87% 30.18 in 9.0 mi NE 11.5 mph - N/A   Overcast
5:15 AM 48.2 °F 44.6 °F 87% 30.18 in 9.0 mi NE 13.8 mph - N/A   Overcast
5:35 AM 48.2 °F 44.6 °F 87% 30.19 in 10.0 mi NE 13.8 mph - N/A   Scattered Clouds
5:55 AM 48.2 °F 44.6 °F 87% 30.20 in 10.0 mi NE 10.4 mph - N/A   Clear
6:15 AM 48.2 °F 44.6 °F 87% 30.21 in 9.0 mi NE 12.7 mph - N/A   Clear
6:35 AM 48.2 °F 44.6 °F 87% 30.21 in 9.0 mi NE 12.7 mph - N/A   Clear
6:55 AM 48.2 °F 44.6 °F 87% 30.21 in 8.0 mi NE 12.7 mph - N/A   Partly Cloudy
7:15 AM 48.2 °F 44.6 °F 87% 30.21 in 7.0 mi NE 11.5 mph 17.3 mph N/A   Partly Cloudy
7:35 AM 48.2 °F 44.6 °F 87% 30.23 in 8.0 mi NE 10.4 mph - N/A   Clear
7:55 AM 48.2 °F 44.6 °F 87% 30.23 in 8.0 mi NE 10.4 mph - N/A   Mostly Cloudy
8:15 AM 48.2 °F 44.6 °F 87% 30.23 in 9.0 mi ENE 9.2 mph - N/A   Overcast
8:35 AM 50.0 °F 44.6 °F 82% 30.23 in 9.0 mi North - - N/A   Overcast
8:55 AM 51.8 °F 46.4 °F 82% 30.23 in 9.0 mi ENE 11.5 mph 17.3 mph N/A   Partly Cloudy
9:15 AM 53.6 °F 48.2 °F 82% 30.23 in 8.0 mi East 12.7 mph - N/A   Clear
9:35 AM 53.6 °F 48.2 °F 82% 30.23 in 8.0 mi ENE 13.8 mph 20.7 mph N/A   Clear
9:55 AM 53.6 °F 48.2 °F 82% 30.23 in 8.0 mi ENE 11.5 mph 17.3 mph N/A   Clear
10:15 AM 55.4 °F 50.0 °F 82% 30.24 in 9.0 mi East 10.4 mph - N/A   Clear
10:35 AM 55.4 °F 50.0 °F 82% 30.24 in 8.0 mi East 9.2 mph - N/A   Partly Cloudy
10:55 AM 55.4 °F 50.0 °F 82% 30.24 in 8.0 mi East 10.4 mph - N/A   Mostly Cloudy
11:15 AM 55.4 °F 50.0 °F 82% 30.23 in 8.0 mi East 10.4 mph - N/A   Mostly Cloudy
11:35 AM 57.2 °F 51.8 °F 82% 30.22 in 8.0 mi East 8.1 mph - N/A   Scattered Clouds
11:55 AM 57.2 °F 51.8 °F 82% 30.22 in 9.0 mi NNE 8.1 mph - N/A   Clear
12:15 PM 57.2 °F 51.8 °F 82% 30.21 in 9.0 mi NE 8.1 mph - N/A   Clear
12:35 PM 57.2 °F 51.8 °F 82% 30.20 in 9.0 mi NNE 10.4 mph - N/A   Clear
12:55 PM 57.2 °F 51.8 °F 82% 30.19 in 9.0 mi ENE 9.2 mph - N/A   Clear
1:15 PM 57.2 °F 51.8 °F 82% 30.18 in 9.0 mi NE 10.4 mph - N/A   Clear
1:35 PM 59.0 °F 51.8 °F 77% 30.18 in 9.0 mi NE 9.2 mph - N/A   Clear
1:55 PM 59.0 °F 51.8 °F 77% 30.17 in 9.0 mi NE 9.2 mph - N/A   Clear
2:15 PM 59.0 °F 51.8 °F 77% 30.16 in 8.0 mi ENE 9.2 mph - N/A   Clear
2:35 PM 59.0 °F 51.8 °F 77% 30.15 in 9.0 mi East 10.4 mph - N/A   Clear
2:55 PM 59.0 °F 51.8 °F 77% 30.15 in 9.0 mi East 9.2 mph - N/A   Clear
3:15 PM 59.0 °F 51.8 °F 77% 30.14 in 10.0 mi East 10.4 mph - N/A   Clear
3:35 PM 60.8 °F 51.8 °F 72% 30.14 in 9.0 mi East 10.4 mph - N/A   Clear
3:55 PM 59.0 °F 51.8 °F 77% 30.14 in 9.0 mi East 9.2 mph - N/A   Clear
4:15 PM 59.0 °F 51.8 °F 77% 30.15 in 9.0 mi East 8.1 mph - N/A   Clear
4:35 PM 59.0 °F 53.6 °F 82% 30.15 in 9.0 mi ESE 8.1 mph - N/A   Clear
4:55 PM 59.0 °F 53.6 °F 82% 30.16 in 9.0 mi East 6.9 mph - N/A   Clear
5:15 PM 57.2 °F 53.6 °F 88% 30.16 in 8.0 mi East 8.1 mph - N/A   Clear
5:35 PM 57.2 °F 53.6 °F 88% 30.16 in 8.0 mi East 6.9 mph - N/A   Clear
5:55 PM 57.2 °F 53.6 °F 88% 30.16 in 7.0 mi East 4.6 mph - N/A   Clear
6:15 PM 57.2 °F 53.6 °F 88% 30.16 in 8.0 mi East 5.8 mph - N/A   Clear
6:35 PM 57.2 °F 53.6 °F 88% 30.17 in 8.0 mi ESE 4.6 mph - N/A   Clear
6:55 PM 57.2 °F 53.6 °F 88% 30.17 in 7.0 mi East 4.6 mph - N/A   Clear
7:15 PM 57.2 °F 53.6 °F 88% 30.18 in 6.0 mi Calm Calm - N/A   Clear
7:35 PM 57.2 °F 53.6 °F 88% 30.18 in 7.0 mi Calm Calm - N/A   Clear
7:55 PM 55.4 °F 53.6 °F 94% 30.17 in 5.0 mi ENE 3.5 mph - N/A   Clear
8:15 PM 55.4 °F 53.6 °F 94% 30.17 in 5.0 mi ENE 6.9 mph - N/A   Clear
8:35 PM 55.4 °F 53.6 °F 94% 30.18 in 5.0 mi ENE 4.6 mph - N/A   Clear
8:55 PM 55.4 °F 53.6 °F 94% 30.18 in 5.0 mi ENE 3.5 mph - N/A   Clear
9:15 PM 55.4 °F 53.6 °F 94% 30.17 in 4.0 mi Calm Calm - N/A   Clear
9:35 PM 55.4 °F 53.6 °F 94% 30.17 in 4.0 mi ENE 3.5 mph - N/A   Scattered Clouds
9:55 PM 55.4 °F 53.6 °F 94% 30.17 in 3.0 mi ENE 4.6 mph - N/A   Scattered Clouds
10:15 PM 55.4 °F 53.6 °F 94% 30.17 in 3.0 mi NE 3.5 mph - N/A   Clear
10:35 PM 55.4 °F 53.6 °F 94% 30.18 in 4.0 mi NNE 5.8 mph - N/A   Mostly Cloudy
10:55 PM 55.4 °F 53.6 °F 94% 30.19 in 5.0 mi NE 4.6 mph - N/A   Overcast
11:15 PM 55.4 °F 55.4 °F 100% 30.18 in 5.0 mi ENE 3.5 mph - N/A   Overcast
11:35 PM 55.4 °F 55.4 °F 100% 30.19 in 4.0 mi NE 3.5 mph - N/A   Overcast
11:55 PM 55.4 °F 55.4 °F 100% 30.18 in 4.0 mi NE 4.6 mph - N/A   Overcast